STARLINK-34794 (65070 NORAD) Tracking and Keplerian Element Data

This shows tracking and keplerian element data for the satellite.

Feedback or suggestion? Click here.




ElementValue
Catalog65070
NameSTARLINK-34794
Epoch Orbit2282
Epoch Day354.18370997
Epoch Year2025
RAAN68.8027
Inclination97.6031
Eccentricity0.0001235
Argument of Perigee92.7571
Mean Anonmoly267.3797
Mean Motion15.05652529
Decay Rate2.599E-05
L11 65070U 25165Q 25354.18370997 .00002599 00000+0 18423-3 0 9995
L22 65070 97.6031 68.8027 0001235 92.7571 267.3797 15.05652529 22824



Live tracking and technical data element details for STARLINK-34794 (NORAD 65070). STARLINK-34794 can be tracked NOW for your location showing map with azimuth and elevation plus other details from your city location.







IsCatalogInMostPopularTable: catalog: 65070, numindb: 4
Update: records affected: 1



GetName: 65070 STARLINK-34794

Hit Count: updated at: Wed, 11 Feb 2026 15:24:26 GMT